GFSGBSN_sfc_dewp_021.txt.gz
Dewpoint
53 53 53 54 54 54 53 53 53 54 53 53 52 53 53 53 53 54 54 55 55 55 54 54 55 56 53 42 35 35 70 72 61 49 38 31 25 28 29 33 33 36 38 39 38 41 42
53 53 53 53 53 53 53 53 53 53 53 53 53 54 54 54 54 54 54 54 54 54 53 54 55 56 52 28 22 24 53 56 45 41 34 31 30 30 31 32 31 35 33 28 35 40 42
54 54 53 53 53 53 53 53 52 52 53 53 54 54 54 54 54 54 54 54 54 52 53 54 56 54 45 26 23 38 40 45 42 36 33 32 32 31 30 31 31 30 29 27 28 29 39
55 55 54 54 54 54 54 53 53 53 53 54 54 54 54 54 54 54 53 53 53 52 53 55 58 52 42 27 29 25 22 25 33 31 33 31 29 28 27 28 28 25 24 21 26 29 35
55 55 55 55 54 54 54 54 54 54 54 53 53 53 53 53 53 52 52 52 53 54 55 58 55 52 41 44 32 25 25 24 30 31 33 30 28 25 22 23 24 21 20 21 22 29 34
55 55 54 54 54 54 54 54 54 53 53 53 53 53 52 52 52 51 51 51 51 54 57 55 51 47 46 34 29 28 27 25 24 25 23 28 27 24 20 20 20 19 20 20 22 30 40
56 55 55 54 55 54 54 54 54 53 53 53 53 52 52 52 51 51 47 42 37 42 48 45 42 38 28 30 31 29 26 25 20 19 20 24 24 22 20 16 20 20 20 21 22 32 45
56 56 56 55 55 55 54 54 54 53 53 53 52 52 52 52 51 49 47 40 26 23 19 18 22 31 37 38 35 28 25 21 20 17 23 21 21 23 22 19 17 18 19 21 23 33 43
56 56 56 55 55 55 55 54 54 53 53 53 53 52 52 51 49 46 32 28 26 19 15 14 14 15 15 22 31 28 25 21 19 22 23 19 23 24 20 19 19 17 18 20 23 33 39
56 55 55 55 55 55 55 55 54 53 53 53 53 52 51 51 42 37 33 32 27 21 17 15 14 12 13 15 22 31 28 25 25 21 21 20 21 20 19 16 16 18 20 21 22 25 32
55 55 55 55 55 55 55 55 54 53 53 53 52 52 51 50 43 39 34 34 31 23 16 19 15 14 12 11 20 27 29 24 24 23 19 18 20 19 15 12 10 16 22 21 22 23 34
55 55 55 55 55 55 54 54 54 53 52 53 52 51 50 43 40 39 37 33 28 19 16 17 14 11 10 10 13 14 25 20 21 24 23 17 18 17 18 15 9 11 17 21 22 22 24
54 54 54 55 54 54 53 53 53 53 52 52 51 49 48 44 37 32 38 32 18 15 20 18 16 15 10 10 9 10 13 14 13 16 17 22 19 15 16 14 10 8 9 15 18 19 21
53 53 53 54 53 53 53 53 53 53 52 52 50 48 46 41 42 42 39 27 18 20 16 18 17 17 16 14 11 10 11 12 13 14 16 17 19 20 17 14 10 7 6 10 16 18 20
53 53 53 53 53 53 53 53 53 53 52 51 49 40 38 36 38 39 33 24 19 21 20 19 19 17 17 18 18 12 11 16 13 12 14 15 18 23 19 17 13 12 6 6 9 16 20
52 53 52 52 52 52 52 52 52 52 52 50 44 40 39 39 38 34 29 27 25 24 24 23 21 20 17 16 16 19 15 15 16 14 14 18 21 20 20 17 15 10 13 6 6 7 13
52 53 52 52 52 52 52 52 51 51 51 49 43 34 31 28 32 30 25 26 26 26 25 24 24 23 21 19 18 16 15 19 18 19 18 16 16 17 20 17 14 14 9 9 8 8 11
52 52 52 52 52 52 52 52 51 51 50 45 37 31 30 31 26 27 25 26 30 25 24 24 26 25 25 24 21 18 16 15 18 18 17 18 16 15 16 19 17 14 13 11 11 14 17
52 51 51 51 51 52 52 51 51 50 50 43 35 33 33 30 22 23 24 22 21 18 18 18 19 19 23 23 23 22 21 19 15 14 18 19 16 15 16 16 17 13 14 13 10 15 15
51 50 50 51 51 51 51 51 51 50 50 45 39 28 27 29 27 23 22 27 29 31 29 27 28 29 29 26 27 26 25 23 18 13 49 40 17 14 14 16 22 23 16 16 11 10 10
49 49 49 50 50 50 50 51 51 50 49 45 42 32 29 29 30 29 29 34 27 24 27 29 30 32 33 30 32 31 33 34 33 37 29 22 22 18 16 18 20 17 21 16 14 10 14
50 50 50 50 50 49 50 50 51 50 49 44 39 35 34 34 31 29 27 22 18 24 27 28 29 34 34 36 36 34 32 33 33 32 31 29 29 28 21 18 15 14 19 21 15 15 16
49 49 49 49 49 49 49 50 50 50 48 44 42 44 41 35 29 27 26 25 28 30 33 33 27 28 30 31 34 36 34 33 33 33 32 30 28 29 22 25 25 17 16 20 23 19 19
50 49 49 49 49 49 49 49 50 50 49 47 46 45 38 30 28 26 24 25 27 30 29 31 31 28 31 35 31 31 33 33 33 32 30 27 28 30 23 28 25 26 27 24 25 28 22
51 50 49 49 49 49 49 49 49 50 50 48 47 44 40 33 32 29 26 27 30 28 28 26 29 33 38 35 32 31 28 28 27 27 27 27 27 27 28 24 26 25 26 27 27 25 33
51 51 50 49 49 49 49 49 49 48 50 49 49 49 42 34 31 32 32 31 28 30 30 30 33 40 40 34 36 32 29 32 31 32 25 25 25 30 29 24 21 27 29 30 38 35 47
50 50 50 50 49 49 49 48 48 49 49 49 48 49 43 36 36 36 32 33 34 34 34 34 37 33 41 35 34 32 31 33 30 33 34 29 36 31 28 24 26 32 25 40 35 38 49
51 51 50 49 49 49 49 48 48 48 48 49 44 50 45 40 38 37 36 33 34 31 28 36 37 38 36 36 30 33 31 30 36 36 38 40 38 35 33 30 28 43 41 36 45 51 53
51 51 50 50 50 48 47 47 47 47 47 48 43 49 49 43 41 40 39 39 38 36 34 35 37 37 40 39 39 39 35 40 40 38 40 39 43 45 39 44 49 53 52 52 57 57 59

GFSGBSN_sfc_dewp_024.txt.gz
Dewpoint
54 53 54 53 55 55 54 53 53 54 53 53 53 53 53 53 53 53 54 54 54 54 53 54 54 56 52 42 36 23 69 71 63 54 44 36 28 24 26 28 30 39 39 46 45 44 42
55 55 54 54 54 54 54 53 53 54 54 54 54 54 54 54 54 54 55 54 54 54 53 53 54 55 49 15 15 26 32 53 48 44 41 35 30 27 28 29 30 33 33 34 37 41 41
55 54 53 54 55 55 54 54 53 53 53 53 54 54 54 54 54 54 54 53 54 53 53 54 54 54 49 17 20 26 34 47 48 42 35 36 32 29 30 29 31 32 29 28 26 33 41
56 55 55 55 55 54 55 54 53 54 54 54 54 54 54 53 54 53 53 53 53 53 54 54 55 54 43 36 32 26 24 31 35 40 37 34 33 31 30 30 26 25 26 23 25 42 44
56 56 56 55 55 55 55 55 54 54 54 53 53 53 53 53 53 52 52 52 53 54 54 57 54 51 40 48 40 32 25 26 26 34 33 33 30 28 27 23 21 23 21 21 22 36 43
56 56 56 56 55 55 55 55 54 54 54 54 53 53 53 53 52 51 51 51 51 54 55 56 53 46 41 32 40 28 24 23 26 30 31 32 28 25 24 20 19 22 20 19 20 28 42
57 57 56 55 56 55 55 55 55 55 54 53 53 53 53 52 51 50 48 45 29 31 48 42 43 42 35 34 37 29 25 26 25 26 23 23 25 25 23 22 21 22 21 20 21 25 42
56 56 56 56 56 55 55 55 55 55 54 54 53 53 53 52 51 50 48 39 37 26 21 21 30 33 36 37 36 38 29 26 23 20 19 20 20 24 24 22 18 17 18 19 21 23 41
55 56 56 56 56 55 55 55 55 54 54 53 53 53 52 51 50 43 35 30 33 32 17 16 17 17 18 30 33 34 30 24 23 18 18 17 20 23 24 23 19 16 15 16 19 23 46
55 55 55 55 55 55 55 54 54 53 53 53 53 53 52 50 39 42 38 35 35 33 16 16 14 13 15 17 19 26 33 23 20 19 17 19 22 21 20 22 21 17 17 17 19 23 30
55 55 54 54 54 54 54 53 53 53 53 53 53 52 51 50 44 42 36 36 36 23 16 22 16 16 15 13 16 20 26 25 23 21 21 22 22 21 21 22 22 18 20 21 21 21 22
54 54 53 54 54 53 53 53 53 53 53 53 53 52 51 45 43 42 40 38 30 15 15 18 16 11 12 12 14 21 26 29 26 25 23 21 22 21 20 21 22 19 14 17 22 21 21
54 53 53 53 53 53 53 53 53 53 53 52 52 50 49 44 40 38 41 33 14 15 19 20 18 18 11 10 10 14 26 28 23 19 22 24 21 18 21 19 19 15 9 10 12 15 18
52 53 53 53 53 53 53 53 53 52 52 51 50 49 46 41 45 44 38 23 16 17 16 21 22 20 15 12 9 9 11 27 26 16 17 21 20 22 19 16 16 14 8 9 9 15 18
53 53 53 53 53 53 53 52 52 52 51 50 49 42 40 39 38 40 33 26 18 19 23 24 23 19 17 19 21 14 9 9 23 19 14 16 18 22 22 20 16 15 7 8 9 23 17
52 52 52 53 53 53 53 52 52 52 51 49 45 41 40 41 38 37 31 29 24 26 26 25 23 22 23 24 23 23 18 14 9 12 15 15 15 17 16 22 22 15 13 11 6 5 6
51 51 51 52 51 52 52 52 52 51 51 49 42 35 35 32 30 32 28 27 26 27 27 25 24 23 23 24 24 23 23 18 18 16 14 12 14 14 19 16 19 19 13 9 6 6 5
51 51 51 51 51 51 52 51 51 51 50 45 38 32 34 33 26 26 28 27 30 26 26 26 24 21 19 24 20 21 23 23 24 23 20 15 11 11 11 18 20 19 16 11 9 8 10
51 51 51 51 51 51 51 51 51 50 49 42 36 34 35 31 24 24 27 27 29 29 29 29 27 26 32 28 27 24 28 28 34 32 26 33 15 12 13 14 16 17 17 14 11 11 9
50 50 50 50 51 51 51 50 50 50 49 42 36 31 29 30 31 30 28 30 30 31 27 28 29 33 33 32 31 32 33 33 34 33 44 34 28 17 14 15 15 15 15 15 10 10 10
49 49 49 49 50 51 51 50 50 50 49 44 38 32 32 29 30 32 29 30 28 26 28 30 30 32 33 32 34 32 35 35 33 37 33 33 26 21 20 18 15 17 18 15 13 11 10
50 50 50 50 50 50 51 50 50 50 49 44 38 36 35 34 33 31 29 27 32 34 32 30 30 31 30 31 31 30 33 31 32 33 32 33 28 27 26 24 15 14 17 18 16 14 12
50 50 50 50 50 50 51 50 50 50 47 42 44 44 40 34 32 27 26 26 26 30 35 33 29 31 28 26 32 32 31 32 32 32 30 32 29 26 25 23 15 15 16 19 19 19 15
51 50 50 50 50 49 50 50 50 50 48 45 44 43 36 32 30 28 28 29 28 31 30 28 29 31 32 37 36 32 31 30 29 31 32 31 30 27 26 26 15 16 17 17 18 22 22
50 50 50 50 50 50 49 49 49 50 50 47 46 43 39 32 30 31 29 30 32 30 28 30 31 32 38 37 32 30 31 30 29 30 31 32 30 28 25 26 23 26 26 20 19 19 29
49 50 50 49 49 49 49 49 48 50 50 47 45 45 43 36 30 32 33 32 30 29 31 31 32 37 37 37 35 27 27 32 30 29 30 27 28 28 27 25 22 23 26 31 33 28 48
50 50 50 50 49 49 49 48 48 48 49 45 43 45 42 36 37 35 32 32 33 31 31 32 33 34 37 34 35 29 29 31 31 29 31 39 36 30 28 29 25 28 29 39 29 33 49
51 50 50 50 49 49 48 48 48 48 47 45 43 46 43 39 36 35 36 35 34 33 32 32 35 35 33 34 34 31 31 29 32 37 39 39 40 39 35 32 25 44 44 30 39 53 50
51 51 50 50 49 48 48 48 48 48 48 47 43 45 46 42 38 40 40 39 38 36 34 34 35 37 38 34 35 37 34 35 35 34 42 39 43 42 41 44 46 53 54 57 58 58 59

GFSGBSN_sfc_dewp_030.txt.gz
Dewpoint
55 55 55 55 55 55 54 54 54 55 54 54 53 54 53 53 53 53 53 53 54 53 53 54 54 54 51 41 23 57 71 65 70 59 61 60 62 59 43 47 55 56 51 50 50 50 49
56 56 56 55 55 54 54 54 54 55 55 54 55 55 55 55 54 54 54 54 54 53 53 54 54 54 46 6 12 29 59 63 67 54 53 45 49 50 34 35 46 42 50 48 46 40 47
57 56 56 55 55 55 55 54 54 54 54 54 54 55 55 54 54 54 54 54 53 53 54 55 54 52 49 8 18 25 58 55 56 48 41 39 36 42 31 27 26 29 29 31 34 34 39
56 55 55 55 55 55 55 55 54 54 54 54 54 54 54 54 54 54 53 53 53 54 56 56 55 51 29 32 37 30 29 43 49 47 38 40 34 31 29 30 27 24 27 24 28 32 33
55 55 55 55 55 55 55 55 54 54 54 54 54 54 54 54 53 53 51 52 53 56 56 56 51 47 27 44 41 33 22 22 39 45 41 35 33 30 29 25 23 24 24 24 25 30 43
55 55 54 53 53 54 54 54 54 54 54 54 53 53 53 53 52 51 51 52 51 56 54 53 52 40 39 28 40 37 27 29 32 37 37 35 31 29 26 24 14 22 21 22 22 29 42
53 53 53 52 52 54 54 54 54 54 54 53 53 53 52 52 51 50 49 40 32 31 36 46 44 38 36 33 35 29 27 24 30 31 29 32 31 27 27 23 23 24 23 23 23 27 40
53 53 52 52 52 52 53 53 53 53 53 53 52 52 52 51 50 50 41 32 32 32 30 30 30 30 37 32 28 28 24 21 25 25 27 26 27 30 29 25 24 23 22 22 22 23 36
52 52 52 52 52 53 53 53 53 53 53 52 52 52 51 50 50 42 40 33 36 36 29 25 27 25 24 29 27 26 22 23 23 22 26 24 25 30 29 26 24 23 22 22 22 23 34
52 53 53 53 53 53 53 53 53 53 53 52 52 52 50 50 37 43 32 38 38 38 19 19 17 17 26 26 24 27 23 24 23 23 21 22 24 27 27 27 24 22 22 21 19 19 18
53 53 53 52 52 53 53 53 53 52 52 52 52 51 50 49 42 40 30 40 39 26 18 25 15 17 23 20 21 25 32 28 22 22 21 21 20 21 24 24 24 24 21 20 19 17 18
52 52 51 51 51 52 52 52 52 52 52 52 52 51 50 45 42 43 41 41 30 20 19 20 18 15 16 15 14 25 27 30 24 22 21 20 22 21 20 21 24 24 21 18 22 20 18
51 50 50 51 51 52 52 52 52 52 52 51 50 49 48 45 37 41 42 32 16 16 21 22 22 23 22 17 13 22 24 26 22 19 18 20 19 21 19 19 22 22 20 19 16 16 17
50 51 51 52 52 52 52 52 52 52 51 50 49 48 44 42 42 41 38 22 15 18 18 26 25 24 21 24 23 24 22 23 26 22 20 18 18 20 21 18 18 20 19 19 15 14 16
50 50 51 52 52 52 52 52 52 51 51 50 49 41 40 40 39 40 31 19 18 20 26 25 25 22 22 24 24 23 22 22 26 21 20 19 19 23 19 21 18 20 19 18 13 23 12
50 50 51 51 52 52 52 52 51 51 50 50 43 39 37 40 36 36 31 26 25 27 26 25 23 24 21 22 23 21 22 31 30 30 26 20 20 22 20 20 21 17 18 17 14 15 13
50 50 51 52 52 51 52 52 51 51 50 49 38 33 32 37 36 33 25 28 28 30 29 25 24 24 23 25 25 20 21 32 33 33 32 27 17 16 23 21 19 18 15 15 16 16 14
50 52 52 52 52 52 52 52 51 50 49 43 34 28 31 34 27 28 26 27 32 31 29 28 27 27 28 28 26 24 29 33 33 34 36 37 19 18 17 18 23 20 18 13 14 13 11
51 51 52 52 52 52 52 51 51 50 49 40 33 33 37 33 26 27 29 27 28 32 32 28 27 33 33 30 24 31 31 35 33 34 37 34 26 15 12 15 18 18 21 15 14 16 14
50 51 51 52 52 52 52 51 50 50 49 41 34 29 32 32 31 28 29 28 28 32 35 33 29 32 31 31 33 31 33 34 32 35 40 34 29 23 20 22 25 20 18 19 18 16 16
50 50 50 50 51 52 52 51 51 50 49 41 34 31 33 27 29 31 28 28 29 29 31 36 34 30 29 27 29 30 31 31 30 36 31 31 27 29 28 29 28 26 24 23 18 19 18
50 50 50 50 50 50 51 51 51 50 47 40 33 36 37 33 33 31 28 26 27 26 30 29 35 33 29 28 29 28 29 30 29 32 28 30 27 30 28 27 27 25 25 23 22 19 20
50 50 49 49 49 50 50 51 50 49 46 42 43 43 38 35 31 31 28 29 27 29 30 35 35 34 27 30 32 32 31 31 31 31 29 28 30 28 25 28 27 22 21 22 21 20 18
50 49 50 49 49 49 50 51 50 50 47 42 41 43 37 31 34 30 29 29 28 29 30 32 31 29 30 35 35 33 34 34 33 31 31 28 29 29 27 27 21 23 27 25 20 19 21
50 49 49 49 49 49 49 49 50 50 49 43 42 42 38 31 31 29 30 30 31 31 30 30 30 29 31 32 30 27 24 27 30 32 30 30 29 26 25 25 23 24 38 43 43 36 27
50 50 49 49 49 49 49 49 49 50 49 43 42 43 42 36 32 31 32 33 30 29 29 30 31 32 35 31 29 24 21 24 26 28 29 29 28 25 27 25 22 30 46 49 49 40 43
50 50 50 50 50 49 50 50 49 49 49 44 43 43 42 36 35 34 34 30 33 33 31 31 31 32 34 31 28 26 24 29 24 26 25 27 28 26 25 27 29 35 48 52 34 34 52
51 51 51 51 50 50 50 49 49 50 50 47 43 43 43 39 38 37 36 34 33 32 30 30 30 31 31 29 28 26 28 29 29 26 27 28 29 29 28 29 23 45 46 45 47 52 54
51 51 51 51 51 51 50 50 50 50 50 50 43 45 47 41 39 39 39 38 37 35 33 35 33 31 36 32 33 32 30 32 30 27 33 29 34 34 29 28 39 49 50 52 53 53 54

GFSGBSN_sfc_dewp_033.txt.gz
Dewpoint
56 56 56 55 55 55 55 55 54 54 54 53 53 54 54 54 54 53 54 54 55 54 54 54 54 54 51 38 16 47 71 64 69 63 61 60 60 58 55 57 58 59 55 51 52 51 48
55 55 55 55 54 54 54 54 53 53 53 53 54 54 54 54 54 54 54 54 54 53 54 54 54 53 45 8 9 29 55 57 63 60 58 59 59 59 53 49 52 48 52 47 38 41 44
55 55 55 54 53 53 53 53 53 53 53 53 53 54 54 54 54 54 54 53 53 53 54 54 54 51 46 12 24 46 55 57 62 56 55 54 57 54 47 34 39 33 28 29 28 32 34
55 54 53 53 53 53 53 52 52 52 53 53 53 53 53 53 53 53 52 52 54 57 56 55 55 50 28 28 28 30 52 51 62 53 50 50 45 52 32 29 27 26 27 25 27 30 32
53 53 53 52 52 53 53 52 52 53 53 53 53 53 53 53 53 52 51 52 55 57 58 56 51 50 22 45 30 22 32 43 58 52 42 42 39 36 30 28 22 23 20 25 26 29 35
53 53 52 52 52 53 53 53 53 53 53 53 53 53 53 52 51 51 51 50 54 55 54 53 50 41 30 23 33 28 25 42 44 45 40 35 33 31 28 24 18 19 21 22 24 28 38
52 52 52 52 52 52 53 53 53 53 53 53 53 53 52 52 50 50 47 39 33 35 33 45 43 35 36 31 38 30 20 32 32 34 27 32 26 25 25 25 21 19 18 23 25 26 37
52 52 52 52 51 52 52 53 53 53 53 53 53 53 52 51 50 50 40 30 30 31 30 30 30 32 37 37 28 30 21 19 24 22 25 31 24 24 25 27 24 20 18 21 25 24 27
52 51 51 51 51 51 51 52 52 53 52 52 52 52 52 51 50 42 39 35 37 37 31 27 29 27 27 28 29 27 21 17 21 20 22 21 21 24 27 27 25 23 17 18 21 23 27
51 52 52 51 51 51 52 52 52 52 52 52 52 52 51 50 39 40 31 38 39 39 23 23 20 23 24 26 25 27 26 21 20 20 22 19 22 24 25 24 26 20 21 19 21 22 21
51 52 51 52 52 52 52 52 52 52 52 52 51 51 50 49 42 38 34 40 40 36 13 23 16 20 24 23 21 25 25 24 20 19 24 22 23 26 26 23 27 21 23 21 19 22 23
50 50 50 51 51 52 52 52 52 52 52 51 51 50 50 44 43 41 41 41 36 20 16 22 16 15 21 21 17 25 25 26 25 24 21 19 23 24 27 27 28 26 25 24 24 21 20
50 50 50 50 51 52 52 52 52 52 51 51 49 49 46 44 33 38 41 34 20 17 22 23 23 24 24 20 15 23 24 24 23 22 23 22 21 23 24 25 27 26 22 19 18 18 17
49 51 52 52 52 52 52 52 52 52 51 50 48 48 43 41 41 39 37 20 18 19 22 25 24 24 21 24 22 22 23 22 25 21 19 19 18 20 22 23 22 25 20 14 16 11 12
49 51 52 52 52 52 52 52 52 51 51 50 48 41 37 37 37 37 30 10 18 25 28 26 24 23 23 23 24 23 23 22 25 23 21 19 18 21 21 20 23 23 22 19 14 18 15
49 51 52 52 52 52 52 52 52 51 51 50 43 39 34 35 36 37 24 23 26 29 29 27 23 24 23 23 23 22 25 32 28 31 33 25 22 21 20 20 21 22 22 18 18 16 15
50 51 52 52 52 52 52 52 52 51 50 48 40 31 30 36 34 30 23 25 27 30 31 26 25 25 24 25 24 23 29 30 30 33 35 29 23 21 23 21 19 19 21 20 18 17 11
50 52 52 52 52 52 52 52 51 51 49 44 38 24 34 34 25 28 23 26 31 29 33 30 28 29 29 28 25 27 30 32 30 35 34 34 23 23 22 22 21 21 21 21 17 24 19
51 52 52 52 52 52 52 52 51 50 49 45 38 35 35 33 25 26 29 27 27 30 32 32 30 32 31 30 26 30 32 33 32 35 35 33 28 24 23 21 21 21 22 22 21 21 25
50 50 50 51 51 52 52 51 51 50 50 42 38 28 30 32 32 28 26 26 26 30 32 37 35 30 30 29 31 29 29 30 30 32 39 35 29 28 21 25 27 26 23 23 21 20 22
50 50 50 50 51 51 51 51 51 50 48 43 41 33 33 26 26 28 29 28 27 26 27 32 36 35 31 28 26 27 28 28 28 35 30 32 27 28 27 25 25 26 24 24 24 24 24
50 50 50 50 50 49 50 51 51 50 47 44 38 36 37 32 33 31 28 26 26 26 27 24 34 36 35 33 29 27 27 29 28 30 29 29 24 27 23 22 22 25 25 25 24 24 24
50 50 50 50 50 50 50 51 51 49 47 44 45 43 39 34 33 32 28 27 26 29 28 31 34 30 28 34 30 29 28 28 28 28 28 28 24 22 18 24 23 22 23 24 24 25 23
50 50 50 50 50 50 50 50 50 50 48 47 45 44 38 31 33 27 28 28 28 29 30 30 28 28 27 31 29 27 30 29 29 28 29 27 31 26 15 21 17 21 27 27 28 24 24
50 50 50 50 50 50 50 50 50 51 50 48 48 44 39 33 31 30 29 27 28 30 29 29 28 31 31 30 26 20 18 25 25 26 26 29 26 22 15 16 19 19 22 33 38 31 42
50 50 50 50 50 50 50 50 50 51 51 49 48 48 43 36 32 32 31 31 28 27 28 29 30 33 36 31 30 21 12 19 14 24 30 28 29 23 21 13 14 25 28 38 48 33 49
50 50 50 50 50 50 50 50 50 50 51 49 47 47 44 37 37 33 33 34 32 34 31 30 31 29 36 31 25 24 21 24 16 14 25 26 26 23 20 19 18 25 35 49 38 35 52
51 51 51 51 50 50 50 50 50 51 51 51 46 47 45 39 37 37 36 36 34 33 32 30 30 34 33 29 28 25 25 25 30 23 21 23 27 26 23 20 15 27 27 30 46 51 51
50 51 51 51 51 51 50 51 51 52 52 52 47 47 47 42 40 39 38 38 37 35 33 35 31 33 35 34 33 33 32 32 31 26 30 26 27 28 26 20 32 35 39 40 49 50 51